Regional Weather Roundup
Issued by NWS

Home | Current Version | Previous Version | Graphics & Text | Print | Product List | Glossary Off
Versions: 1 2 3 4 5 6 7 8 9 10 11 12 13 14 15 16 17 18 19 20 21 22 23 24 25 26 27 28 29 30 31 32 33 34 35 36 37 38 39 40 41 42 43 44 45 46 47 48 49 50

000
ASUS43 KDMX 221206
RWRIA

WEATHER ROUNDUP FOR IOWA
NATIONAL WEATHER SERVICE DES MOINES IA
700 AM CDT THU JUN 22 2017

NOTE: "FAIR" INDICATES FEW OR NO CLOUDS BELOW 12,000 FEET WITH NO
SIGNIFICANT WEATHER AND/OR OBSTRUCTIONS TO VISIBILITY.

* - THESE STATIONS ARE NOT NWS STATIONS...THUS NOT UNDER NWS
QUALITY CONTROL.  THEY ALSO DO NOT REPORT WEATHER SUCH
AS PRECIPITATION OR FOG.

IAZ001>003-012>014-020>022-031>034-043>046-221300-
   NORTHWEST IOWA

CITY           SKY/WX    TMP DP  RH WIND       PRES   REMARKS
CARROLL *        N/A     75  59  57 SW16G25   29.70R
CHEROKEE *     SUNNY     73  64  75 S9        29.66F
DENISON *      MOSUNNY   73  61  64 S8        29.71R
LE MARS *      SUNNY     73  63  68 N5        29.67R
ORANGE CITY *  PTSUNNY   72  66  83 NE6       29.68R
SHELDON *      CLOUDY    72  68  88 E12G17    29.66F
SIOUX CITY       N/A     76  62  62 S8        29.64S
6HR MIN TEMP:  75; 6HR MAX TEMP:  83;

SPENCER        CLOUDY    71  64  78 N7        29.70R
6HR MIN TEMP:  67; 6HR MAX TEMP:  76;

STORM LAKE *     N/A     73  61  64 SW15      29.68F
$$

IAZ055>058-069>071-079>083-090>094-221300-
   SOUTHWEST IOWA

CITY           SKY/WX    TMP DP  RH WIND       PRES   REMARKS
ATLANTIC *     PTSUNNY   72  61  68 SW9       29.72R
AUDUBON *      CLOUDY    73  61  64 S8        29.73R
CLARINDA *     MOSUNNY   73  64  73 S15       29.74R
COUNCIL BLFS * MOSUNNY   73  59  60 S12       29.69S
CRESTON *      MOSUNNY   72  63  73 S17G25    29.73S
HARLAN  *      MOSUNNY   72  61  68 S8G16     29.74S
LAMONI         SUNNY     70  63  78 S10       29.76F
6HR MIN TEMP:  69; 6HR MAX TEMP:  75;

RED OAK *      MOSUNNY   73  63  68 S8        29.72R
SHENANDOAH *     N/A    N/A N/A N/A SW9G15    29.74R
$$

IAZ047>049-059>061-072>074-084-221300-
   CENTRAL IOWA

CITY           SKY/WX    TMP DP  RH WIND       PRES   REMARKS
AMES           CLOUDY    75  64  68 S10       29.72S
6HR MIN TEMP:  75; 6HR MAX TEMP:  81;

ANKENY *       CLOUDY    75  61  60 SW13      29.74R
BOONE *        MOSUNNY   75  63  64 S14G26    29.69F
CHARITON *     MOSUNNY   72  63  73 S12G21    29.76S
DES MOINES     PTSUNNY   75  61  61 S13       29.72R
6HR MIN TEMP:  75; 6HR MAX TEMP:  79;

GRINNELL*      MOSUNNY   73  61  65 S14       29.76S
KNOXVILLE *    PTSUNNY   73  63  68 S15G22    29.73F
MARSHALLTOWN   CLOUDY    74  62  66 VRB5      29.75R
6HR MIN TEMP:  74; 6HR MAX TEMP:  78;

NEWTON *       MOSUNNY   73  61  64 S18       29.73F
PELLA *        CLOUDY    74  62  66 S9G21     29.75F
PERRY *          N/A     75  60  59 S12       29.72S
$$

IAZ004>006-015-016-023>025-035-036-221300-
   NORTH CENTRAL IOWA

CITY           SKY/WX    TMP DP  RH WIND       PRES   REMARKS
ALGONA *       CLOUDY    72  66  83 SE7       29.69F
CLARION *        N/A     72  66  83 S12       29.67F
ESTHERVILLE    CLOUDY    68  67  96 N5        29.70R
6HR MIN TEMP:  64; 6HR MAX TEMP:  73;

FORT DODGE *     N/A     75  57  53 S15G21    29.67F
MASON CITY     CLOUDY    71  66  84 S13       29.71R
6HR MIN TEMP:  69; 6HR MAX TEMP:  77; 6HR PCP:  0.53;

FOREST CITY *  CLOUDY    72  61  68 SE7       29.68F
WEBSTER CITY *   N/A     75  63  64 S17       29.66F
IOWA FALLS *   PTSUNNY   73  66  79 SE10      29.74F
$$

IAZ007>011-017>019-026>030-037>042-050>054-066-221300-
   NORTHEAST IOWA

CITY           SKY/WX    TMP DP  RH WIND       PRES   REMARKS
CEDAR RAPIDS   CLOUDY    71  67  87 S9        29.77F
6HR MIN TEMP:  70; 6HR MAX TEMP:  74;

CHARLES CITY * CLOUDY    70  70 100 S12G20    29.73R
CLINTON *      CLOUDY    72  68  87 CALM      29.85R
DECORAH *      CLOUDY    72  64  78 S10G18    29.74R
DUBUQUE          N/A     71  63  75 S9        29.82F
6HR MIN TEMP:  71; 6HR MAX TEMP:  76;

MONTICELLO *     N/A     70  66  88 CALM      29.80F
OELWEIN *      LGT RAIN  68  68 100 SE12      29.78F
WATERLOO       CLOUDY    71  66  84 S9        29.74F
6HR MIN TEMP:  69; 6HR MAX TEMP:  79; 6HR PCP:  1.57;

$$

IAZ064-065-067-068-078-221300-
   EAST CENTRAL IOWA

CITY           SKY/WX    TMP DP  RH WIND       PRES   REMARKS
DAVENPORT      CLOUDY    74  65  73 SW5       29.83R
6HR MIN TEMP:  74; 6HR MAX TEMP:  79;

IOWA CITY      MOSUNNY   72  65  78 S6        29.80F
6HR MIN TEMP:  72; 6HR MAX TEMP:  76;

MT. PLEASANT * SUNNY     72  65  78 S14       29.81F
MUSCATINE *    MOSUNNY   73  66  78 SE7       29.81S
QUAD CITIES    MOSUNNY   74  66  76 CALM      29.82R
6HR MIN TEMP:  73; 6HR MAX TEMP:  80;

$$

IAZ062-063-075>077-085>089-095>099-221300-
   SOUTHEAST IOWA

CITY           SKY/WX    TMP DP  RH WIND       PRES   REMARKS
BURLINGTON     CLOUDY    73  68  84 S12       29.83F
6HR MIN TEMP:  73; 6HR MAX TEMP:  79; 6HR PCP: TRACE;

FAIRFIELD *    SUNNY     73  64  73 S14       29.79F
FORT MADISON * CLOUDY    75  68  78 S10       29.84F
KEOKUK *       CLOUDY    73  68  83 S9        29.84F
OSKALOOSA *      N/A     73  64  74 S14G20    29.77F
CENTERVILLE *    N/A     72  64  78 S13       29.81S
OTTUMWA        MOSUNNY   73  65  75 S15       29.76F
6HR MIN TEMP:  71; 6HR MAX TEMP:  74;

WASHINGTON *   SUNNY     73  66  78 S13       29.80F
$$

ABBREVIATIONS USED IN REMARKS
   TC - TEMPERATURES IN CELSIUS
  WCI - WIND CHILL INDEX
   HX - HEAT INDEX
  VSB - VISIBILITY
$$





USA.gov is the U.S. government's official web portal to all federal, state and local government web resources and services.